Regional Weather Roundup
Issued by NWS

Home | Current Version | Previous Version | Graphics & Text | Print | Product List | Glossary On
Versions: 1 2 3 4 5 6 7 8 9 10 11 12 13 14 15 16 17 18 19 20 21 22 23 24 25 26 27 28 29 30 31 32 33 34 35 36 37 38 39 40 41 42 43 44 45 46 47 48 49 50
000
ASUS45 KSLC 141710
RWRUT

UTAH REGIONAL WEATHER ROUNDUP
NATIONAL WEATHER SERVICE SALT LAKE CITY UT
1000 AM MST SUN FEB 14 2016

UTZ001>011-023>025-141800-

NORTHERN UTAH

CITY           SKY/WX    TMP DP  RH WIND       PRES   REMARKS
BRIGHAM CITY   CLOUDY    29  28  94 CALM      30.29R VSB 1
HILL AFB       LGT SNOW  32  28  86 S8        30.24R VSB 3/4 WCI  25
LOGAN          LGT SNOW  30  30 100 N7        30.23R FOG     WCI  23
OGDEN          LGT SNOW  31  31 100 S8        30.25R VSB 1   WCI  23
PROVO AIRPORT  FOG       27  25  93 SW6       30.28S VSB 3/4 WCI  20
SALT LAKE CITY FRZ RAIN  31  30  96 SE10      30.26F FOG     WCI  22
VERNAL         CLOUDY    28  22  78 SE3       30.13S
WENDOVER       PTSUNNY   34  28  80 S5        30.26F WCI  30
WEST JORDAN    CLOUDY    30  30 100 SE5       30.27S WCI  25

$$

UTZ012>022-026-027-141800-

SOUTHERN/CENTRAL UTAH

CITY           SKY/WX    TMP DP  RH WIND       PRES   REMARKS
BLANDING       CLOUDY    37  28  72 CALM      30.24R
BRYCE CANYON   PTSUNNY   31  15  52 W13       30.24S WCI  21
CEDAR CITY     MOSUNNY   33  22  63 E3        30.22F
DELTA          PTSUNNY   21  20  97 NW6       30.26F WCI  13
HANKSVILLE     CLOUDY    32  32 100 CALM      30.20R
MILFORD        PTSUNNY   20  17  88 NE3       30.25F FOG
MOAB/CYNLANDS  CLOUDY    34  32  92 CALM      30.16S
PRICE          CLOUDY    37  22  54 VRB6      30.15S WCI  32
ST GEORGE      CLOUDY    45  25  45 CALM      30.22F

$$

REGIONAL REPORTS     COLORADO/ARIZONA

CITY           SKY/WX    TMP DP  RH WIND       PRES   REMARKS
CRAIG, CO      CLOUDY    20  15  81 SE6       30.13R WCI  12
GRAND JUNCTION CLOUDY    32  28  85 CALM      30.15F
RIFLE          CLOUDY    27  20  75 N3        30.15F
MONTROSE       CLOUDY    34  24  67 CALM      30.19S
CORTEZ         CLOUDY    37  21  52 CALM      30.17F
PAGE, AZ       CLOUDY    41  27  57 W3        30.19S
GRAND CANYON   PTSUNNY   45  26  47 CALM      30.24F
KINGMAN        MOSUNNY   58  23  26 NE3       30.17R
FLAGSTAFF      MOSUNNY   47  17  30 CALM      30.22F

$$

REGIONAL REPORTS    NEVADA/IDAHO/WYOMING

CITY           SKY/WX    TMP DP  RH WIND       PRES   REMARKS
LAS VEGAS, NV  MOSUNNY   59  20  22 W6        30.14R
ELY            CLOUDY    31  22  69 CALM      30.30R
ELKO           CLOUDY    36  29  75 CALM      30.29S
POCATELLO, ID  CLOUDY    37  34  89 SW25G31   30.19R WCI  25
BURLEY         CLOUDY    38  36  92 W10       30.21R WCI  31
EVANSTON, WY   CLOUDY    30  27  88 SW17      30.17R WCI  18
ROCK SPRINGS   CLOUDY    32  25  75 W37G45    30.07R WCI  16

$$



USA.gov is the U.S. government's official web portal to all federal, state and local government web resources and services.